Time,TemperatureF,DewpointF,PressureIn,WindDirection,WindDirectionDegrees,WindSpeedMPH,WindSpeedGustMPH,Humidity,HourlyPrecipIn,Conditions,Clouds,dailyrainin,SolarRadiationWatts/m^2,SoftwareType,DateUTC
2013-09-17 00:05:00,64.1,54.0,29.77,West,263,4.0,9.0,70,0.00,,,0.00,0,weatherlink.com 1.10,2013-09-17 07:05:00,
2013-09-17 00:20:00,63.8,54.0,29.77,SW,232,3.0,8.0,71,0.00,,,0.00,0,weatherlink.com 1.10,2013-09-17 07:20:00,
2013-09-17 00:35:00,63.4,54.0,29.77,West,269,4.0,10.0,72,0.00,,,0.00,0,weatherlink.com 1.10,2013-09-17 07:35:00,
2013-09-17 00:50:00,63.0,54.0,29.77,WSW,250,7.0,9.0,73,0.00,,,0.00,0,weatherlink.com 1.10,2013-09-17 07:50:00,
2013-09-17 01:20:00,62.0,54.0,29.77,West,264,4.0,9.0,74,0.00,,,0.00,0,weatherlink.com 1.10,2013-09-17 08:20:00,
2013-09-17 01:35:00,61.6,54.0,29.77,WSW,255,0.0,7.0,75,0.00,,,0.00,0,weatherlink.com 1.10,2013-09-17 08:35:00,
2013-09-17 01:51:00,61.1,54.0,29.77,WSW,246,6.0,8.0,76,0.00,,,0.00,0,weatherlink.com 1.10,2013-09-17 08:51:00,
2013-09-17 02:06:00,61.1,53.0,29.77,West,278,6.0,12.0,75,0.00,,,0.00,0,weatherlink.com 1.10,2013-09-17 09:06:00,
2013-09-17 02:21:00,61.2,53.0,29.77,WSW,254,6.0,12.0,75,0.00,,,0.00,0,weatherlink.com 1.10,2013-09-17 09:21:00,
2013-09-17 02:36:00,60.9,53.0,29.77,SW,214,2.0,7.0,75,0.00,,,0.00,0,weatherlink.com 1.10,2013-09-17 09:36:00,
2013-09-17 02:51:00,59.7,53.0,29.77,SW,236,0.0,5.0,78,0.00,,,0.00,0,weatherlink.com 1.10,2013-09-17 09:51:00,
2013-09-17 03:06:00,58.7,53.0,29.77,South,186,0.0,5.0,80,0.00,,,0.00,0,weatherlink.com 1.10,2013-09-17 10:06:00,
2013-09-17 03:21:00,57.6,52.0,29.77,South,186,0.0,3.0,82,0.00,,,0.00,0,weatherlink.com 1.10,2013-09-17 10:21:00,
2013-09-17 03:36:00,56.3,51.0,29.77,South,185,2.0,3.0,83,0.00,,,0.00,0,weatherlink.com 1.10,2013-09-17 10:36:00,
2013-09-17 03:51:00,55.8,52.0,29.77,South,175,1.0,3.0,86,0.00,,,0.00,0,weatherlink.com 1.10,2013-09-17 10:51:00,
2013-09-17 04:06:00,55.4,52.0,29.77,South,175,0.0,4.0,87,0.00,,,0.00,0,weatherlink.com 1.10,2013-09-17 11:06:00,
2013-09-17 04:21:00,54.9,52.0,29.76,South,175,1.0,4.0,88,0.00,,,0.00,0,weatherlink.com 1.10,2013-09-17 11:21:00,
2013-09-17 04:36:00,54.6,51.0,29.77,South,174,0.0,3.0,88,0.00,,,0.00,0,weatherlink.com 1.10,2013-09-17 11:36:00,
2013-09-17 04:51:00,54.6,52.0,29.77,SSE,164,2.0,4.0,89,0.00,,,0.00,0,weatherlink.com 1.10,2013-09-17 11:51:00,
2013-09-17 05:06:00,54.6,52.0,29.77,SSE,164,1.0,3.0,89,0.00,,,0.00,0,weatherlink.com 1.10,2013-09-17 12:06:00,
2013-09-17 05:21:00,54.5,52.0,29.77,South,186,3.0,4.0,90,0.00,,,0.00,0,weatherlink.com 1.10,2013-09-17 12:21:00,
2013-09-17 05:36:00,55.2,52.0,29.78,WSW,238,3.0,5.0,90,0.00,,,0.00,0,weatherlink.com 1.10,2013-09-17 12:36:00,
2013-09-17 05:51:00,56.4,53.0,29.78,West,270,4.0,9.0,88,0.00,,,0.00,0,weatherlink.com 1.10,2013-09-17 12:51:00,
2013-09-17 06:06:00,57.4,53.0,29.77,WSW,240,3.0,8.0,86,0.00,,,0.00,0,weatherlink.com 1.10,2013-09-17 13:06:00,
2013-09-17 06:21:00,57.9,54.0,29.78,WSW,258,0.0,6.0,85,0.00,,,0.00,0,weatherlink.com 1.10,2013-09-17 13:21:00,
2013-09-17 06:36:00,58.7,54.0,29.79,SW,226,7.0,12.0,83,0.00,,,0.00,0,weatherlink.com 1.10,2013-09-17 13:36:00,
2013-09-17 06:51:00,59.0,53.0,29.79,WSW,257,7.0,9.0,81,0.00,,,0.00,5,weatherlink.com 1.10,2013-09-17 13:51:00,
2013-09-17 07:06:00,59.0,53.0,29.79,WSW,251,4.0,11.0,81,0.00,,,0.00,12,weatherlink.com 1.10,2013-09-17 14:06:00,
2013-09-17 07:21:00,59.5,53.0,29.79,WNW,283,0.0,9.0,80,0.00,,,0.00,23,weatherlink.com 1.10,2013-09-17 14:21:00,
2013-09-17 07:36:00,59.9,53.0,29.79,SW,236,5.0,10.0,79,0.00,,,0.00,79,weatherlink.com 1.10,2013-09-17 14:36:00,
2013-09-17 07:51:00,61.0,54.0,29.80,WSW,237,5.0,13.0,78,0.00,,,0.00,132,weatherlink.com 1.10,2013-09-17 14:51:00,
2013-09-17 08:06:00,61.9,54.0,29.79,West,262,7.0,14.0,76,0.00,,,0.00,197,weatherlink.com 1.10,2013-09-17 15:06:00,
2013-09-17 08:21:00,62.7,55.0,29.79,West,270,4.0,14.0,75,0.00,,,0.00,246,weatherlink.com 1.10,2013-09-17 15:21:00,
2013-09-17 08:37:00,63.6,55.0,29.80,SW,226,0.0,11.0,74,0.00,,,0.00,295,weatherlink.com 1.10,2013-09-17 15:37:00,
2013-09-17 08:52:00,64.3,55.0,29.80,WNW,294,2.0,16.0,72,0.00,,,0.00,348,weatherlink.com 1.10,2013-09-17 15:52:00,
2013-09-17 09:07:00,65.4,55.0,29.80,NW,307,7.0,10.0,70,0.00,,,0.00,396,weatherlink.com 1.10,2013-09-17 16:07:00,
2013-09-17 09:22:00,66.4,55.0,29.81,WNW,299,5.0,13.0,68,0.00,,,0.00,443,weatherlink.com 1.10,2013-09-17 16:22:00,
2013-09-17 09:37:00,67.1,56.0,29.81,West,263,4.0,13.0,68,0.00,,,0.00,480,weatherlink.com 1.10,2013-09-17 16:37:00,
2013-09-17 09:52:00,67.7,56.0,29.81,West,259,8.0,14.0,67,0.00,,,0.00,527,weatherlink.com 1.10,2013-09-17 16:52:00,
2013-09-17 10:07:00,68.5,56.0,29.82,WNW,289,6.0,13.0,64,0.00,,,0.00,566,weatherlink.com 1.10,2013-09-17 17:07:00,
2013-09-17 10:22:00,69.2,56.0,29.82,WSW,246,10.0,14.0,63,0.00,,,0.00,599,weatherlink.com 1.10,2013-09-17 17:22:00,
2013-09-17 10:37:00,70.2,55.0,29.81,West,270,4.0,14.0,59,0.00,,,0.00,640,weatherlink.com 1.10,2013-09-17 17:37:00,
2013-09-17 10:52:00,71.0,56.0,29.81,WNW,298,4.0,13.0,60,0.00,,,0.00,671,weatherlink.com 1.10,2013-09-17 17:52:00,
2013-09-17 11:07:00,72.5,57.0,29.81,WNW,286,10.0,14.0,59,0.00,,,0.00,694,weatherlink.com 1.10,2013-09-17 18:07:00,
2013-09-17 11:22:00,73.0,56.0,29.81,WNW,289,2.0,13.0,55,0.00,,,0.00,724,weatherlink.com 1.10,2013-09-17 18:22:00,
2013-09-17 11:37:00,73.8,57.0,29.81,NW,318,8.0,13.0,55,0.00,,,0.00,752,weatherlink.com 1.10,2013-09-17 18:37:00,
2013-09-17 11:52:00,74.8,56.0,29.81,NW,309,5.0,12.0,53,0.00,,,0.00,765,weatherlink.com 1.10,2013-09-17 18:52:00,
2013-09-17 12:07:00,75.7,56.0,29.81,NNW,328,7.0,12.0,50,0.00,,,0.00,786,weatherlink.com 1.10,2013-09-17 19:07:00,
2013-09-17 12:22:00,76.6,55.0,29.81,NNW,333,1.0,13.0,48,0.00,,,0.00,798,weatherlink.com 1.10,2013-09-17 19:22:00,
2013-09-17 12:37:00,77.6,56.0,29.80,WNW,298,5.0,12.0,47,0.00,,,0.00,807,weatherlink.com 1.10,2013-09-17 19:37:00,
2013-09-17 12:53:00,78.7,56.0,29.80,NW,316,2.0,12.0,45,0.00,,,0.00,812,weatherlink.com 1.10,2013-09-17 19:53:00,
2013-09-17 13:08:00,79.3,57.0,29.80,West,268,6.0,13.0,46,0.00,,,0.00,816,weatherlink.com 1.10,2013-09-17 20:08:00,
2013-09-17 13:23:00,80.1,56.0,29.80,WNW,282,7.0,10.0,43,0.00,,,0.00,810,weatherlink.com 1.10,2013-09-17 20:23:00,
2013-09-17 13:38:00,80.9,56.0,29.80,NW,311,3.0,7.0,42,0.00,,,0.00,803,weatherlink.com 1.10,2013-09-17 20:38:00,
2013-09-17 13:53:00,81.0,57.0,29.80,WNW,300,5.0,11.0,44,0.00,,,0.00,800,weatherlink.com 1.10,2013-09-17 20:53:00,
2013-09-17 14:08:00,81.1,56.0,29.79,WNW,303,5.0,9.0,42,0.00,,,0.00,779,weatherlink.com 1.10,2013-09-17 21:08:00,
2013-09-17 14:23:00,80.7,57.0,29.79,WNW,289,8.0,12.0,45,0.00,,,0.00,759,weatherlink.com 1.10,2013-09-17 21:23:00,
2013-09-17 14:38:00,80.6,57.0,29.79,West,277,4.0,10.0,45,0.00,,,0.00,737,weatherlink.com 1.10,2013-09-17 21:38:00,
2013-09-17 14:53:00,81.1,56.0,29.79,NE,45,4.0,9.0,43,0.00,,,0.00,717,weatherlink.com 1.10,2013-09-17 21:53:00,
2013-09-17 15:08:00,81.0,58.0,29.79,WNW,286,4.0,10.0,45,0.00,,,0.00,680,weatherlink.com 1.10,2013-09-17 22:08:00,
2013-09-17 15:23:00,80.8,57.0,29.79,NW,308,4.0,11.0,44,0.00,,,0.00,650,weatherlink.com 1.10,2013-09-17 22:23:00,
2013-09-17 15:38:00,80.7,57.0,29.79,WNW,286,5.0,10.0,44,0.00,,,0.00,629,weatherlink.com 1.10,2013-09-17 22:38:00,
2013-09-17 15:53:00,80.4,57.0,29.79,West,264,3.0,11.0,45,0.00,,,0.00,585,weatherlink.com 1.10,2013-09-17 22:53:00,
2013-09-17 16:08:00,80.2,56.0,29.79,West,279,7.0,12.0,43,0.00,,,0.00,543,weatherlink.com 1.10,2013-09-17 23:08:00,
2013-09-17 16:23:00,80.0,56.0,29.79,West,264,4.0,9.0,44,0.00,,,0.00,499,weatherlink.com 1.10,2013-09-17 23:23:00,
2013-09-17 16:38:00,80.0,56.0,29.79,West,260,6.0,9.0,44,0.00,,,0.00,461,weatherlink.com 1.10,2013-09-17 23:38:00,
2013-09-17 16:53:00,79.4,55.0,29.79,WNW,291,3.0,10.0,43,0.00,,,0.00,411,weatherlink.com 1.10,2013-09-17 23:53:00,
2013-09-17 17:08:00,79.3,55.0,29.79,WNW,296,3.0,8.0,44,0.00,,,0.00,309,weatherlink.com 1.10,2013-09-18 00:08:00,
2013-09-17 17:23:00,79.0,55.0,29.79,WNW,284,5.0,8.0,44,0.00,,,0.00,169,weatherlink.com 1.10,2013-09-18 00:23:00,
2013-09-17 17:38:00,78.3,55.0,29.79,NW,306,6.0,8.0,45,0.00,,,0.00,271,weatherlink.com 1.10,2013-09-18 00:38:00,
2013-09-17 17:53:00,77.4,54.0,29.79,NW,306,2.0,10.0,45,0.00,,,0.00,223,weatherlink.com 1.10,2013-09-18 00:53:00,
2013-09-17 18:08:00,76.6,54.0,29.79,WSW,257,5.0,9.0,46,0.00,,,0.00,49,weatherlink.com 1.10,2013-09-18 01:08:00,
2013-09-17 18:23:00,75.1,55.0,29.79,NW,309,3.0,8.0,50,0.00,,,0.00,62,weatherlink.com 1.10,2013-09-18 01:23:00,
2013-09-17 18:38:00,74.0,55.0,29.79,WNW,294,0.0,7.0,52,0.00,,,0.00,32,weatherlink.com 1.10,2013-09-18 01:38:00,
2013-09-17 18:53:00,72.6,56.0,29.79,NW,319,1.0,3.0,57,0.00,,,0.00,12,weatherlink.com 1.10,2013-09-18 01:53:00,
2013-09-17 19:08:00,70.9,55.0,29.79,West,279,3.0,5.0,57,0.00,,,0.00,5,weatherlink.com 1.10,2013-09-18 02:08:00,
2013-09-17 19:23:00,69.5,55.0,29.79,West,280,0.0,3.0,60,0.00,,,0.00,0,weatherlink.com 1.10,2013-09-18 02:23:00,
2013-09-17 19:38:00,68.1,54.0,29.79,NW,311,0.0,3.0,62,0.00,,,0.00,0,weatherlink.com 1.10,2013-09-18 02:38:00,
2013-09-17 19:53:00,66.9,54.0,29.79,NW,311,1.0,2.0,64,0.00,,,0.00,0,weatherlink.com 1.10,2013-09-18 02:53:00,
2013-09-17 20:08:00,66.1,54.0,29.80,WNW,292,3.0,5.0,65,0.00,,,0.00,0,weatherlink.com 1.10,2013-09-18 03:08:00,
2013-09-17 20:23:00,65.8,54.0,29.80,WNW,298,1.0,4.0,65,0.00,,,0.00,0,weatherlink.com 1.10,2013-09-18 03:23:00,
2013-09-17 20:38:00,65.3,54.0,29.81,WSW,241,1.0,5.0,66,0.00,,,0.00,0,weatherlink.com 1.10,2013-09-18 03:38:00,
2013-09-17 20:53:00,64.9,54.0,29.81,WNW,283,2.0,5.0,67,0.00,,,0.00,0,weatherlink.com 1.10,2013-09-18 03:53:00,
2013-09-17 21:08:00,64.7,54.0,29.82,WNW,284,3.0,3.0,68,0.00,,,0.00,0,weatherlink.com 1.10,2013-09-18 04:08:00,
2013-09-17 21:23:00,64.3,54.0,29.82,WNW,284,3.0,5.0,69,0.00,,,0.00,0,weatherlink.com 1.10,2013-09-18 04:23:00,
2013-09-17 21:38:00,63.8,53.0,29.82,West,269,0.0,5.0,69,0.00,,,0.00,0,weatherlink.com 1.10,2013-09-18 04:38:00,
2013-09-17 21:53:00,63.9,54.0,29.82,WNW,291,4.0,6.0,69,0.00,,,0.00,0,weatherlink.com 1.10,2013-09-18 04:53:00,
2013-09-17 22:08:00,64.1,54.0,29.82,NW,307,3.0,7.0,69,0.00,,,0.00,0,weatherlink.com 1.10,2013-09-18 05:08:00,
2013-09-17 22:23:00,63.6,54.0,29.82,WNW,296,3.0,6.0,70,0.00,,,0.00,0,weatherlink.com 1.10,2013-09-18 05:23:00,
2013-09-17 22:38:00,63.1,53.0,29.82,WNW,288,2.0,5.0,70,0.00,,,0.00,0,weatherlink.com 1.10,2013-09-18 05:38:00,
2013-09-17 22:53:00,62.5,53.0,29.82,WNW,294,2.0,4.0,71,0.00,,,0.00,0,weatherlink.com 1.10,2013-09-18 05:53:00,
2013-09-17 23:08:00,61.8,53.0,29.82,WNW,294,3.0,4.0,72,0.00,,,0.00,0,weatherlink.com 1.10,2013-09-18 06:08:00,
2013-09-17 23:23:00,61.3,53.0,29.82,NW,314,0.0,4.0,73,0.00,,,0.00,0,weatherlink.com 1.10,2013-09-18 06:23:00,
2013-09-17 23:38:00,61.0,53.0,29.82,NNW,327,2.0,7.0,74,0.00,,,0.00,0,weatherlink.com 1.10,2013-09-18 06:38:00,
2013-09-17 23:53:00,60.8,52.0,29.83,NNW,327,1.0,3.0,74,0.00,,,0.00,0,weatherlink.com 1.10,2013-09-18 06:53:00,